Starlink 11410

operational
NORAD ID: 61946 Int'l Des: 2024-209 Owner: SPXS Country: US Constellation: starlink
LEOCIRCULAR

About Starlink 11410

Description loading...

Live Position

Loading 3D Globe...

Upcoming Passes

Altitude History

Altitude vs Time

uPlot chart will show altitude changes over time

Two-Line Element Set

1 61946U 24209H 25258.26348979 .00377309 00000-0 29616-2 0 9998
2 61946 53.1574 156.1649 0000993 73.9274 286.1853 15.69857096 49167
Epoch: Sep 15, 2025 • Age: 17 hours

Current Status

Altitude 374.3 km
Velocity 7.68 km/s
Sub-Earth Point -46.65°S, 122.72°E
Launch Date Nov 14, 2024
Age 0.8 years
Type internet

Technical Details

Classification Payload
Mass 960.00 kg
Dry Mass 910.00 kg
Total Mass 960.00 kg
Length 0.30 m
Diameter 4.10 m
Span 29.00 m
Shape Box + pan
Manufacturer SPXS
Bus Type Starlink V2MD
Phase Status In Orbit
Owner/State SPXS/US

Large Constellations

Loading constellations...